Location: Unspecified
(42.3650°N, 71.1030°W)
Time: 14:41:03
(UTC+00:00)

UKube-1 - Visible Passes

Search period start: 12 July 2024 00:00
Search period end: 22 July 2024 00:00
Orbit: 581 x 587 km, 98.3° (Epoch: 12 July)

Date Brightness Start Highest point End Pass type
(mag) Time Alt. Az. Time Alt. Az. Time Alt. Az.
12 Jul ? 04:58:38 10° ENE 05:00:22 13° E 05:00:22 13° E visible
12 Jul ? 06:32:17 10° N 06:36:20 51° WNW 06:36:47 49° W visible
13 Jul ? 05:04:33 10° NE 05:06:43 15° E 05:06:43 15° E visible
13 Jul ? 06:38:40 10° N 06:42:38 44° WNW 06:43:09 42° W visible
14 Jul ? 05:10:33 10° NE 05:13:04 18° E 05:13:04 18° E visible
14 Jul ? 06:45:03 10° N 06:48:55 38° WNW 06:49:29 36° W visible
15 Jul ? 05:16:36 10° NE 05:19:23 21° E 05:19:23 21° E visible
15 Jul ? 06:51:26 10° N 06:55:10 33° WNW 06:55:48 31° W visible
16 Jul ? 05:22:41 10° NE 05:25:42 24° E 05:25:42 24° E visible
16 Jul ? 06:57:49 10° N 07:01:24 28° WNW 07:02:07 27° W visible
17 Jul ? 05:28:47 10° NE 05:31:59 27° E 05:31:59 27° E visible
17 Jul ? 07:04:13 10° NNW 07:07:37 25° WNW 07:08:24 23° W visible
18 Jul ? 05:34:55 10° NNE 05:38:16 32° E 05:38:16 32° E visible
18 Jul ? 07:10:37 10° NNW 07:13:49 22° WNW 07:14:41 20° W visible
19 Jul ? 05:41:03 10° NNE 05:44:32 36° E 05:44:32 36° E visible
19 Jul ? 07:17:03 10° NNW 07:20:00 19° WNW 07:20:57 18° W visible
20 Jul ? 05:47:11 10° NNE 05:50:46 42° E 05:50:46 42° E visible
20 Jul ? 07:23:30 10° NNW 07:26:10 17° WNW 07:27:11 15° W visible
21 Jul ? 05:53:20 10° NNE 05:57:00 49° ENE 05:57:00 49° ENE visible
21 Jul ? 07:30:00 10° NNW 07:32:18 15° WNW 07:33:25 13° W visible
